Погода в Пулавах

Польша     51°25′02″N   21°58′20″E
темп.,
°C
ветер,
м/с
пор.,
м/с
влажн.,
%
обл.,
%
осадки,
мм/ч
давл.,
гПа
погр.,
м
19 января, ср
ср1901:00−2зюз4992100 0.0 1032304
04:00−2зюз4109314 0.0 1030366
07:00−1зюз61191100 0.0 1028643
10:00+1з51185100 0.0 1026738
13:00+2з5985100 0.0 1023675
16:00+1зюз3891100 0.0 1021256
19:00−1ююз4990100 0.0 1018199
22:000ююз61570100 0.0 1015403
20 января, чт
чт2001:000юз71674100 0.0 1012708
04:00+1юз81682100 0.0 10081122
07:00+1зюз81597100 0.8 1006956
10:00+1з7166612 0.5 10071626
13:000з81488100 1.6 10051366
16:00−2з81576100 0.1 10061333
19:00−2зсз8156961 0.3 10071394
22:00−2зсз91664100 0.1 10091504
21 января, пт
пт2101:00−2зсз91562100 0.1 10101359
04:00−3з9166457 0.0 10101075
07:00−2зсз91777100 0.2 10111097
10:00−1зсз81476100 0.1 10121257
13:00−1зсз8126880 0.1 10121330
16:00−2зсз81468100 0.0 10121086
19:00−2зсз81368100 0.1 10131155
22:00−2зсз71376100 0.0 10141098
22 января, сб
сб2201:00−3зсз7137791 0.1 1014919
04:00−3зсз7147798 0.0 1013849
07:00−3зсз71376100 0.1 1012962
10:00−3зсз81589100 0.2 10131153
13:00−2с6107299 0.5 10151268
16:00−3ссз61079100 0.1 10191105
19:00−3ссз5108196 0.2 1021764
22:00−4сз5987100 0.0 1023548
23 января, вс
вс2301:00−4ссз5986100 0.1 1024756
04:00−4ссз5986100 0.1 1025765
07:00−4с51091100 0.4 1026865
10:00−4ссв5776100 0.1 1029717
13:00−3ссв456999 0.1 1031819
16:00−5ссв367987 0.0 1033494
19:00−6ссв368727 0.0 1035382
22:00−6ссв25905 0.0 1037224